Time,TemperatureF,DewpointF,PressureIn,WindDirection,WindDirectionDegrees,WindSpeedMPH,WindSpeedGustMPH,Humidity,HourlyPrecipIn,Conditions,Clouds,dailyrainin,SoftwareType,DateUTC
2013-02-24 00:01:00,42.3,41.5,29.84,NE,45,1.0,2.0,97,0.00,,,0.00,meteohub,2013-02-24 05:01:00,
2013-02-24 00:04:00,42.3,41.5,29.84,NE,45,1.0,2.0,97,0.00,,,0.00,meteohub,2013-02-24 05:04:00,
2013-02-24 00:07:00,42.3,41.5,29.83,NE,45,1.0,2.0,97,0.00,,,0.00,meteohub,2013-02-24 05:07:00,
2013-02-24 00:12:00,42.3,41.5,29.84,NE,45,0.0,2.0,97,0.00,,,0.00,meteohub,2013-02-24 05:12:00,
2013-02-24 00:17:00,42.3,41.5,29.83,NE,45,0.0,2.0,97,0.00,,,0.00,meteohub,2013-02-24 05:17:00,
2013-02-24 00:22:00,42.3,41.5,29.82,NE,45,0.0,2.0,97,0.00,,,0.00,meteohub,2013-02-24 05:22:00,
2013-02-24 00:27:00,42.3,41.5,29.83,NE,45,0.0,2.0,97,0.00,,,0.00,meteohub,2013-02-24 05:27:00,
2013-02-24 00:32:00,42.3,41.5,29.82,NE,45,0.0,2.0,97,0.00,,,0.00,meteohub,2013-02-24 05:32:00,
2013-02-24 00:37:00,42.3,41.5,29.82,NE,45,0.0,0.0,97,0.00,,,0.00,meteohub,2013-02-24 05:37:00,
2013-02-24 00:42:00,42.3,41.5,29.83,NE,45,0.0,0.0,97,0.00,,,0.00,meteohub,2013-02-24 05:42:00,
2013-02-24 00:47:00,42.3,41.5,29.83,NE,45,0.0,0.0,97,0.00,,,0.00,meteohub,2013-02-24 05:47:00,
2013-02-24 00:52:00,42.3,41.5,29.84,NE,45,1.0,2.0,97,0.00,,,0.00,meteohub,2013-02-24 05:52:00,
2013-02-24 00:57:00,42.3,41.5,29.85,NE,45,0.0,2.0,97,0.00,,,0.00,meteohub,2013-02-24 05:57:00,
2013-02-24 01:02:00,42.4,41.7,29.85,NE,45,1.0,2.0,97,0.00,,,0.00,meteohub,2013-02-24 06:02:00,
2013-02-24 01:07:00,42.4,41.7,29.85,NE,45,1.0,1.0,97,0.00,,,0.00,meteohub,2013-02-24 06:07:00,
2013-02-24 01:12:00,42.4,41.7,29.85,NE,45,2.0,2.0,97,0.00,,,0.00,meteohub,2013-02-24 06:12:00,
2013-02-24 01:17:00,42.4,41.7,29.85,SE,135,2.0,2.0,97,0.00,,,0.00,meteohub,2013-02-24 06:17:00,
2013-02-24 01:22:00,42.4,41.7,29.84,SE,135,0.0,2.0,97,0.00,,,0.00,meteohub,2013-02-24 06:22:00,
2013-02-24 01:27:00,42.4,41.7,29.84,SE,135,0.0,2.0,97,0.00,,,0.00,meteohub,2013-02-24 06:27:00,
2013-02-24 01:32:00,42.6,41.9,29.85,NE,45,2.0,2.0,97,0.00,,,0.00,meteohub,2013-02-24 06:32:00,
2013-02-24 01:37:00,42.6,41.9,29.86,NE,45,0.0,2.0,97,0.00,,,0.00,meteohub,2013-02-24 06:37:00,
2013-02-24 01:42:00,42.6,41.9,29.85,East,90,0.0,2.0,97,0.00,,,0.00,meteohub,2013-02-24 06:42:00,
2013-02-24 01:47:00,42.6,41.9,29.85,East,90,0.0,2.0,97,0.00,,,0.00,meteohub,2013-02-24 06:47:00,
2013-02-24 01:52:00,42.6,41.9,29.84,NNW,338,0.0,2.0,97,0.00,,,0.00,meteohub,2013-02-24 06:52:00,
2013-02-24 01:57:00,42.6,41.9,29.84,North,0,2.0,2.0,97,0.00,,,0.00,meteohub,2013-02-24 06:57:00,
2013-02-24 02:02:00,42.6,41.9,29.84,NW,315,2.0,2.0,97,0.00,,,0.00,meteohub,2013-02-24 07:02:00,
2013-02-24 02:07:00,42.8,42.1,29.83,NE,45,2.0,2.0,97,0.00,,,0.00,meteohub,2013-02-24 07:07:00,
2013-02-24 02:12:00,42.8,42.1,29.83,NE,45,2.0,2.0,97,0.00,,,0.00,meteohub,2013-02-24 07:12:00,
2013-02-24 02:17:00,42.8,42.3,29.82,NE,45,0.0,2.0,98,0.00,,,0.00,meteohub,2013-02-24 07:17:00,
2013-02-24 02:22:00,42.8,42.3,29.83,NE,45,0.0,2.0,98,0.00,,,0.00,meteohub,2013-02-24 07:22:00,
2013-02-24 02:27:00,43.0,42.4,29.82,NE,45,0.0,2.0,98,0.00,,,0.00,meteohub,2013-02-24 07:27:00,
2013-02-24 02:32:00,43.0,42.3,29.82,SE,135,2.0,2.0,97,0.00,,,0.00,meteohub,2013-02-24 07:32:00,
2013-02-24 02:37:00,43.0,42.4,29.82,North,0,0.0,2.0,98,0.00,,,0.00,meteohub,2013-02-24 07:37:00,
2013-02-24 02:42:00,43.0,42.3,29.82,North,0,0.0,2.0,97,0.00,,,0.00,meteohub,2013-02-24 07:42:00,
2013-02-24 02:47:00,43.2,42.6,29.82,North,0,1.0,2.0,98,0.00,,,0.00,meteohub,2013-02-24 07:47:00,
2013-02-24 02:52:00,43.0,42.4,29.82,North,0,0.0,2.0,98,0.00,,,0.00,meteohub,2013-02-24 07:52:00,
2013-02-24 02:57:00,43.0,42.3,29.81,North,0,0.0,2.0,97,0.00,,,0.00,meteohub,2013-02-24 07:57:00,
2013-02-24 03:02:00,43.2,42.6,29.81,North,0,2.0,2.0,98,0.00,,,0.00,meteohub,2013-02-24 08:02:00,
2013-02-24 03:07:00,43.2,42.6,29.81,North,0,2.0,2.0,98,0.00,,,0.00,meteohub,2013-02-24 08:07:00,
2013-02-24 03:12:00,43.2,42.6,29.81,North,0,1.0,2.0,98,0.00,,,0.00,meteohub,2013-02-24 08:12:00,
2013-02-24 03:17:00,43.2,42.6,29.81,North,0,0.0,2.0,98,0.00,,,0.00,meteohub,2013-02-24 08:17:00,
2013-02-24 03:22:00,43.2,42.6,29.82,North,0,2.0,2.0,98,0.00,,,0.00,meteohub,2013-02-24 08:22:00,
2013-02-24 03:27:00,43.2,42.6,29.82,North,0,1.0,3.0,98,0.00,,,0.00,meteohub,2013-02-24 08:27:00,
2013-02-24 03:32:00,43.2,42.6,29.82,North,0,3.0,3.0,98,0.00,,,0.00,meteohub,2013-02-24 08:32:00,
2013-02-24 03:37:00,43.3,42.8,29.82,North,0,3.0,3.0,98,0.00,,,0.00,meteohub,2013-02-24 08:37:00,
2013-02-24 03:42:00,43.5,43.0,29.83,NE,45,1.0,4.0,98,0.00,,,0.00,meteohub,2013-02-24 08:42:00,
2013-02-24 03:47:00,43.7,43.2,29.82,South,180,5.0,5.0,98,0.00,,,0.00,meteohub,2013-02-24 08:47:00,
2013-02-24 03:52:00,43.9,43.3,29.81,NE,45,2.0,5.0,98,0.00,,,0.00,meteohub,2013-02-24 08:52:00,
2013-02-24 03:57:00,44.1,43.5,29.81,SW,225,2.0,5.0,98,0.00,,,0.00,meteohub,2013-02-24 08:57:00,
2013-02-24 04:05:00,44.1,43.5,29.81,NW,315,2.0,5.0,98,0.00,,,0.01,meteohub,2013-02-24 09:05:00,
2013-02-24 04:11:00,43.9,43.3,29.80,North,0,2.0,3.0,98,0.02,,,0.02,meteohub,2013-02-24 09:11:00,
2013-02-24 04:17:00,43.9,43.3,29.80,North,0,0.0,2.0,98,0.02,,,0.02,meteohub,2013-02-24 09:17:00,
2013-02-24 04:22:00,43.7,43.2,29.80,North,0,0.0,2.0,98,0.02,,,0.02,meteohub,2013-02-24 09:22:00,
2013-02-24 04:27:00,43.3,42.8,29.81,North,0,1.0,2.0,98,0.02,,,0.02,meteohub,2013-02-24 09:27:00,
2013-02-24 04:32:00,43.2,42.6,29.81,North,0,0.0,2.0,98,0.02,,,0.02,meteohub,2013-02-24 09:32:00,
2013-02-24 04:37:00,42.8,42.1,29.81,North,0,0.0,2.0,97,0.02,,,0.02,meteohub,2013-02-24 09:37:00,
2013-02-24 04:42:00,42.4,41.7,29.80,North,0,0.0,2.0,97,0.02,,,0.02,meteohub,2013-02-24 09:42:00,
2013-02-24 04:47:00,42.1,41.4,29.81,North,0,0.0,0.0,97,0.02,,,0.02,meteohub,2013-02-24 09:47:00,
2013-02-24 04:52:00,41.7,41.0,29.82,North,0,0.0,0.0,97,0.02,,,0.02,meteohub,2013-02-24 09:52:00,
2013-02-24 04:57:00,41.2,40.5,29.81,North,0,0.0,0.0,97,0.02,,,0.02,meteohub,2013-02-24 09:57:00,
2013-02-24 05:02:00,40.8,40.1,29.81,North,0,0.0,0.0,97,0.01,,,0.02,meteohub,2013-02-24 10:02:00,
2013-02-24 05:07:00,40.8,40.1,29.82,North,0,0.0,0.0,97,0.01,,,0.02,meteohub,2013-02-24 10:07:00,
2013-02-24 05:12:00,39.4,38.7,29.82,North,0,0.0,0.0,97,0.00,,,0.02,meteohub,2013-02-24 10:12:00,
2013-02-24 05:17:00,38.7,37.9,29.82,North,0,0.0,0.0,97,0.00,,,0.02,meteohub,2013-02-24 10:17:00,
2013-02-24 05:22:00,38.1,37.4,29.83,North,0,0.0,0.0,97,0.00,,,0.02,meteohub,2013-02-24 10:22:00,
2013-02-24 05:27:00,37.8,37.0,29.83,North,0,0.0,0.0,97,0.00,,,0.02,meteohub,2013-02-24 10:27:00,
2013-02-24 05:32:00,37.6,36.9,29.84,North,0,0.0,0.0,97,0.00,,,0.02,meteohub,2013-02-24 10:32:00,
2013-02-24 05:37:00,37.4,36.7,29.84,North,0,0.0,0.0,97,0.00,,,0.02,meteohub,2013-02-24 10:37:00,
2013-02-24 05:42:00,37.0,36.3,29.84,North,0,0.0,0.0,97,0.00,,,0.02,meteohub,2013-02-24 10:42:00,
2013-02-24 05:47:00,36.5,35.8,29.84,North,0,0.0,0.0,97,0.00,,,0.02,meteohub,2013-02-24 10:47:00,
2013-02-24 05:52:00,35.8,35.1,29.85,North,0,0.0,0.0,97,0.00,,,0.02,meteohub,2013-02-24 10:52:00,
2013-02-24 05:57:00,35.4,34.7,29.85,North,0,0.0,0.0,97,0.00,,,0.02,meteohub,2013-02-24 10:57:00,
2013-02-24 06:02:00,35.2,34.5,29.85,North,0,0.0,0.0,97,0.00,,,0.02,meteohub,2013-02-24 11:02:00,
2013-02-24 06:07:00,35.2,34.5,29.85,North,0,0.0,0.0,97,0.00,,,0.02,meteohub,2013-02-24 11:07:00,
2013-02-24 06:12:00,34.7,34.0,29.85,North,0,0.0,0.0,97,0.00,,,0.02,meteohub,2013-02-24 11:12:00,
2013-02-24 06:17:00,34.5,33.8,29.86,North,0,0.0,0.0,97,0.00,,,0.02,meteohub,2013-02-24 11:17:00,
2013-02-24 06:22:00,34.3,33.6,29.86,North,0,0.0,0.0,97,0.00,,,0.02,meteohub,2013-02-24 11:22:00,
2013-02-24 06:27:00,34.2,33.4,29.86,North,0,0.0,0.0,97,0.00,,,0.02,meteohub,2013-02-24 11:27:00,
2013-02-24 06:32:00,33.8,33.1,29.86,North,0,0.0,0.0,97,0.00,,,0.02,meteohub,2013-02-24 11:32:00,
2013-02-24 06:37:00,33.4,32.7,29.86,North,0,0.0,0.0,97,0.00,,,0.02,meteohub,2013-02-24 11:37:00,
2013-02-24 06:42:00,33.3,32.5,29.86,North,0,0.0,0.0,97,0.00,,,0.02,meteohub,2013-02-24 11:42:00,
2013-02-24 06:47:00,33.1,32.4,29.87,North,0,0.0,0.0,97,0.00,,,0.02,meteohub,2013-02-24 11:47:00,
2013-02-24 06:52:00,33.1,32.4,29.87,North,0,0.0,0.0,97,0.00,,,0.02,meteohub,2013-02-24 11:52:00,
2013-02-24 06:57:00,33.1,32.4,29.87,North,0,0.0,0.0,97,0.00,,,0.02,meteohub,2013-02-24 11:57:00,
2013-02-24 07:02:00,32.9,32.2,29.87,North,0,0.0,0.0,97,0.00,,,0.02,meteohub,2013-02-24 12:02:00,
2013-02-24 07:07:00,32.7,32.2,29.88,North,0,0.0,0.0,98,0.00,,,0.02,meteohub,2013-02-24 12:07:00,
2013-02-24 07:12:00,32.7,32.2,29.88,North,0,0.0,0.0,98,0.00,,,0.02,meteohub,2013-02-24 12:12:00,
2013-02-24 07:17:00,32.9,32.4,29.88,North,0,0.0,0.0,98,0.00,,,0.02,meteohub,2013-02-24 12:17:00,
2013-02-24 07:22:00,32.9,32.4,29.88,North,0,0.0,0.0,98,0.00,,,0.02,meteohub,2013-02-24 12:22:00,
2013-02-24 07:27:00,32.9,32.4,29.88,North,0,0.0,0.0,98,0.00,,,0.02,meteohub,2013-02-24 12:27:00,
2013-02-24 07:32:00,32.9,32.4,29.88,North,0,0.0,0.0,98,0.00,,,0.02,meteohub,2013-02-24 12:32:00,
2013-02-24 07:37:00,33.1,32.5,29.89,North,0,0.0,0.0,98,0.00,,,0.02,meteohub,2013-02-24 12:37:00,
2013-02-24 07:45:00,33.4,32.9,29.90,North,0,0.0,0.0,98,0.00,,,0.02,meteohub,2013-02-24 12:45:00,
2013-02-24 07:51:00,33.6,33.1,29.90,North,0,0.0,0.0,98,0.00,,,0.02,meteohub,2013-02-24 12:51:00,
2013-02-24 07:57:00,34.0,33.4,29.91,North,0,0.0,0.0,98,0.00,,,0.02,meteohub,2013-02-24 12:57:00,
2013-02-24 08:02:00,34.3,33.8,29.91,North,0,0.0,0.0,98,0.00,,,0.02,meteohub,2013-02-24 13:02:00,
2013-02-24 08:07:00,34.9,34.3,29.91,North,0,0.0,0.0,98,0.00,,,0.02,meteohub,2013-02-24 13:07:00,
2013-02-24 08:12:00,35.6,35.1,29.91,North,0,0.0,0.0,98,0.00,,,0.02,meteohub,2013-02-24 13:12:00,
2013-02-24 08:17:00,36.1,35.6,29.91,North,0,0.0,0.0,98,0.00,,,0.02,meteohub,2013-02-24 13:17:00,
2013-02-24 08:24:00,37.9,37.8,29.91,East,90,2.0,0.0,99,0.00,,,0.02,meteohub,2013-02-24 13:24:00,
2013-02-24 08:30:00,40.1,39.9,29.92,NE,45,2.0,2.0,99,0.00,,,0.02,meteohub,2013-02-24 13:30:00,
2013-02-24 08:36:00,41.9,41.7,29.91,SE,135,2.0,3.0,99,0.00,,,0.02,meteohub,2013-02-24 13:36:00,
2013-02-24 08:42:00,43.0,42.8,29.91,East,90,2.0,3.0,99,0.00,,,0.02,meteohub,2013-02-24 13:42:00,
2013-02-24 08:47:00,43.9,43.7,29.91,NE,45,2.0,4.0,99,0.00,,,0.02,meteohub,2013-02-24 13:47:00,
2013-02-24 08:52:00,44.4,44.2,29.92,NE,45,5.0,6.0,99,0.00,,,0.02,meteohub,2013-02-24 13:52:00,
2013-02-24 08:57:00,45.3,45.1,29.92,NE,45,3.0,6.0,99,0.00,,,0.02,meteohub,2013-02-24 13:57:00,
2013-02-24 09:02:00,45.9,45.7,29.92,NW,315,7.0,7.0,99,0.00,,,0.02,meteohub,2013-02-24 14:02:00,
2013-02-24 09:07:00,46.4,46.2,29.93,South,180,3.0,8.0,99,0.00,,,0.02,meteohub,2013-02-24 14:07:00,
2013-02-24 09:12:00,47.3,46.8,29.93,North,0,7.0,8.0,98,0.00,,,0.02,meteohub,2013-02-24 14:12:00,
2013-02-24 09:17:00,48.0,47.1,29.93,SE,135,3.0,8.0,97,0.00,,,0.02,meteohub,2013-02-24 14:17:00,
2013-02-24 09:22:00,48.7,47.7,29.93,East,90,4.0,7.0,96,0.00,,,0.02,meteohub,2013-02-24 14:22:00,
2013-02-24 09:27:00,49.3,47.7,29.92,NE,45,4.0,7.0,94,0.00,,,0.02,meteohub,2013-02-24 14:27:00,
2013-02-24 09:32:00,49.8,47.3,29.92,North,0,4.0,8.0,91,0.00,,,0.02,meteohub,2013-02-24 14:32:00,
2013-02-24 09:37:00,50.5,47.5,29.92,North,0,5.0,8.0,89,0.00,,,0.02,meteohub,2013-02-24 14:37:00,
2013-02-24 09:42:00,51.1,47.1,29.92,NE,45,4.0,8.0,86,0.00,,,0.02,meteohub,2013-02-24 14:42:00,
2013-02-24 09:47:00,51.3,46.6,29.92,East,90,4.0,8.0,84,0.00,,,0.02,meteohub,2013-02-24 14:47:00,
2013-02-24 09:52:00,51.8,46.8,29.93,West,270,3.0,8.0,83,0.00,,,0.02,meteohub,2013-02-24 14:52:00,
2013-02-24 09:57:00,52.5,46.6,29.93,North,0,5.0,8.0,80,0.00,,,0.02,meteohub,2013-02-24 14:57:00,
2013-02-24 10:02:00,53.1,45.3,29.92,NE,45,6.0,6.0,75,0.00,,,0.02,meteohub,2013-02-24 15:02:00,
2013-02-24 10:07:00,53.1,44.2,29.92,North,0,6.0,10.0,72,0.00,,,0.02,meteohub,2013-02-24 15:07:00,
2013-02-24 10:12:00,53.4,44.2,29.92,East,90,4.0,11.0,71,0.00,,,0.02,meteohub,2013-02-24 15:12:00,
2013-02-24 10:17:00,53.8,43.2,29.92,NE,45,5.0,11.0,67,0.00,,,0.02,meteohub,2013-02-24 15:17:00,
2013-02-24 10:22:00,54.5,43.7,29.92,NW,315,6.0,11.0,67,0.00,,,0.02,meteohub,2013-02-24 15:22:00,
2013-02-24 10:27:00,55.0,43.5,29.92,NW,315,5.0,8.0,65,0.00,,,0.02,meteohub,2013-02-24 15:27:00,
2013-02-24 10:32:00,54.9,41.7,29.92,North,0,4.0,8.0,61,0.00,,,0.02,meteohub,2013-02-24 15:32:00,
2013-02-24 10:37:00,55.2,42.4,29.92,NNW,338,4.0,6.0,62,0.00,,,0.02,meteohub,2013-02-24 15:37:00,
2013-02-24 10:42:00,55.9,41.9,29.92,NNE,23,5.0,7.0,59,0.00,,,0.02,meteohub,2013-02-24 15:42:00,
2013-02-24 10:47:00,56.1,41.5,29.93,NE,45,4.0,8.0,58,0.00,,,0.02,meteohub,2013-02-24 15:47:00,
2013-02-24 10:52:00,56.7,41.5,29.93,NE,45,4.0,8.0,57,0.00,,,0.02,meteohub,2013-02-24 15:52:00,
2013-02-24 10:57:00,57.2,42.1,29.93,West,270,2.0,8.0,57,0.00,,,0.02,meteohub,2013-02-24 15:57:00,
2013-02-24 11:02:00,57.4,39.4,29.93,SW,225,7.0,7.0,51,0.00,,,0.02,meteohub,2013-02-24 16:02:00,
2013-02-24 11:07:00,57.2,39.2,29.93,North,0,2.0,7.0,51,0.00,,,0.02,meteohub,2013-02-24 16:07:00,
2013-02-24 11:12:00,57.2,39.7,29.93,SW,225,4.0,7.0,52,0.00,,,0.02,meteohub,2013-02-24 16:12:00,
2013-02-24 11:17:00,57.6,39.6,29.93,West,270,4.0,7.0,51,0.00,,,0.02,meteohub,2013-02-24 16:17:00,
2013-02-24 11:22:00,57.9,39.4,29.93,SW,225,7.0,7.0,50,0.00,,,0.02,meteohub,2013-02-24 16:22:00,
2013-02-24 11:27:00,57.6,37.9,29.93,North,0,9.0,9.0,48,0.00,,,0.02,meteohub,2013-02-24 16:27:00,
2013-02-24 11:32:00,57.2,37.8,29.93,NE,45,7.0,9.0,48,0.00,,,0.02,meteohub,2013-02-24 16:32:00,
2013-02-24 11:37:00,57.7,37.6,29.93,South,180,11.0,11.0,47,0.00,,,0.02,meteohub,2013-02-24 16:37:00,
2013-02-24 11:42:00,57.9,36.7,29.93,NW,315,4.0,11.0,45,0.00,,,0.02,meteohub,2013-02-24 16:42:00,
2013-02-24 11:47:00,58.6,37.4,29.93,SW,225,4.0,11.0,45,0.00,,,0.02,meteohub,2013-02-24 16:47:00,
2013-02-24 11:53:00,58.8,37.0,29.91,SE,135,2.0,11.0,44,0.00,,,0.02,meteohub,2013-02-24 16:53:00,
2013-02-24 11:59:00,58.8,34.5,29.92,North,0,5.0,7.0,40,0.00,,,0.02,meteohub,2013-02-24 16:59:00,
2013-02-24 12:05:00,59.0,36.0,29.91,North,0,8.0,9.0,42,0.00,,,0.02,meteohub,2013-02-24 17:05:00,
2013-02-24 12:11:00,59.4,36.9,29.91,NW,315,4.0,9.0,43,0.00,,,0.02,meteohub,2013-02-24 17:11:00,
2013-02-24 12:17:00,59.2,35.4,29.91,NW,315,5.0,10.0,41,0.00,,,0.02,meteohub,2013-02-24 17:17:00,
2013-02-24 12:22:00,59.4,35.6,29.91,NE,45,6.0,10.0,41,0.00,,,0.02,meteohub,2013-02-24 17:22:00,
2013-02-24 12:27:00,59.5,36.5,29.91,West,270,4.0,10.0,42,0.00,,,0.02,meteohub,2013-02-24 17:27:00,
2013-02-24 12:32:00,59.5,35.2,29.91,East,90,5.0,8.0,40,0.00,,,0.02,meteohub,2013-02-24 17:32:00,
2013-02-24 12:37:00,59.7,36.5,29.91,NW,315,4.0,8.0,42,0.00,,,0.02,meteohub,2013-02-24 17:37:00,
2013-02-24 12:42:00,60.4,37.2,29.91,SW,225,4.0,8.0,42,0.00,,,0.02,meteohub,2013-02-24 17:42:00,
2013-02-24 12:47:00,60.6,36.1,29.90,North,0,4.0,8.0,40,0.00,,,0.02,meteohub,2013-02-24 17:47:00,
2013-02-24 12:53:00,61.0,35.8,29.90,North,0,5.0,6.0,39,0.00,,,0.02,meteohub,2013-02-24 17:53:00,
2013-02-24 12:59:00,61.2,35.4,29.90,NW,315,6.0,8.0,38,0.00,,,0.02,meteohub,2013-02-24 17:59:00,
2013-02-24 13:05:00,61.2,35.4,29.90,SW,225,6.0,9.0,38,0.00,,,0.02,meteohub,2013-02-24 18:05:00,
2013-02-24 13:11:00,61.0,35.8,29.89,NE,45,2.0,9.0,39,0.00,,,0.02,meteohub,2013-02-24 18:11:00,
2013-02-24 13:17:00,61.5,35.1,29.89,NW,315,6.0,9.0,37,0.00,,,0.02,meteohub,2013-02-24 18:17:00,
2013-02-24 13:22:00,61.5,33.6,29.89,South,180,4.0,9.0,35,0.00,,,0.02,meteohub,2013-02-24 18:22:00,
2013-02-24 13:27:00,61.9,33.3,29.88,SW,225,4.0,9.0,34,0.00,,,0.02,meteohub,2013-02-24 18:27:00,
2013-02-24 13:32:00,61.9,33.3,29.89,North,0,8.0,9.0,34,0.00,,,0.02,meteohub,2013-02-24 18:32:00,
2013-02-24 13:37:00,62.1,33.4,29.89,SW,225,3.0,8.0,34,0.00,,,0.02,meteohub,2013-02-24 18:37:00,
2013-02-24 13:42:00,62.1,31.8,29.89,SW,225,4.0,8.0,32,0.00,,,0.02,meteohub,2013-02-24 18:42:00,
2013-02-24 13:47:00,62.1,31.1,29.88,SW,225,9.0,9.0,31,0.00,,,0.02,meteohub,2013-02-24 18:47:00,
2013-02-24 13:52:00,61.9,31.6,29.88,NW,315,8.0,9.0,32,0.00,,,0.02,meteohub,2013-02-24 18:52:00,
2013-02-24 13:57:00,62.1,29.5,29.88,NW,315,8.0,9.0,29,0.00,,,0.02,meteohub,2013-02-24 18:57:00,
2013-02-24 14:02:00,62.1,28.6,29.88,North,0,5.0,9.0,28,0.00,,,0.02,meteohub,2013-02-24 19:02:00,
2013-02-24 14:07:00,62.6,29.8,29.88,South,180,3.0,8.0,29,0.00,,,0.02,meteohub,2013-02-24 19:07:00,
2013-02-24 14:12:00,63.0,28.4,29.87,NW,315,7.0,8.0,27,0.00,,,0.02,meteohub,2013-02-24 19:12:00,
2013-02-24 14:17:00,63.1,27.7,29.87,NE,45,4.0,10.0,26,0.00,,,0.02,meteohub,2013-02-24 19:17:00,
2013-02-24 14:22:00,63.3,28.8,29.88,North,0,4.0,10.0,27,0.00,,,0.02,meteohub,2013-02-24 19:22:00,
2013-02-24 14:27:00,63.3,25.9,29.88,NW,315,7.0,10.0,24,0.00,,,0.02,meteohub,2013-02-24 19:27:00,
2013-02-24 14:32:00,63.1,24.8,29.88,NE,45,4.0,10.0,23,0.00,,,0.02,meteohub,2013-02-24 19:32:00,
2013-02-24 14:37:00,63.0,26.6,29.88,NE,45,5.0,10.0,25,0.00,,,0.02,meteohub,2013-02-24 19:37:00,
2013-02-24 14:42:00,62.8,23.4,29.88,NW,315,11.0,11.0,22,0.00,,,0.02,meteohub,2013-02-24 19:42:00,
2013-02-24 14:47:00,62.6,22.1,29.88,NE,45,5.0,11.0,21,0.00,,,0.02,meteohub,2013-02-24 19:47:00,
2013-02-24 14:52:00,63.1,24.8,29.88,NE,45,11.0,11.0,23,0.00,,,0.02,meteohub,2013-02-24 19:52:00,
2013-02-24 14:57:00,63.0,21.2,29.88,NE,45,5.0,11.0,20,0.00,,,0.02,meteohub,2013-02-24 19:57:00,
2013-02-24 15:02:00,63.0,22.5,29.88,North,0,2.0,11.0,21,0.00,,,0.02,meteohub,2013-02-24 20:02:00,
2013-02-24 15:07:00,63.1,21.4,29.88,NE,45,7.0,11.0,20,0.00,,,0.02,meteohub,2013-02-24 20:07:00,
2013-02-24 15:12:00,63.0,22.5,29.88,SW,225,3.0,11.0,21,0.00,,,0.02,meteohub,2013-02-24 20:12:00,
2013-02-24 15:17:00,63.0,21.2,29.88,WSW,248,2.0,11.0,20,0.00,,,0.02,meteohub,2013-02-24 20:17:00,
2013-02-24 15:22:00,62.6,18.5,29.88,NW,315,6.0,9.0,18,0.00,,,0.02,meteohub,2013-02-24 20:22:00,
2013-02-24 15:27:00,62.8,22.3,29.88,West,270,4.0,9.0,21,0.00,,,0.02,meteohub,2013-02-24 20:27:00,
2013-02-24 15:32:00,62.8,21.0,29.88,NE,45,7.0,9.0,20,0.00,,,0.02,meteohub,2013-02-24 20:32:00,
2013-02-24 15:37:00,62.6,21.0,29.88,North,0,6.0,8.0,20,0.00,,,0.02,meteohub,2013-02-24 20:37:00,
2013-02-24 15:42:00,62.8,22.3,29.88,North,0,4.0,10.0,21,0.00,,,0.02,meteohub,2013-02-24 20:42:00,
2013-02-24 15:47:00,62.6,23.2,29.88,North,0,4.0,10.0,22,0.00,,,0.02,meteohub,2013-02-24 20:47:00,
2013-02-24 15:52:00,62.6,22.1,29.88,East,90,5.0,10.0,21,0.00,,,0.02,meteohub,2013-02-24 20:52:00,
2013-02-24 15:57:00,62.6,22.1,29.88,NW,315,4.0,7.0,21,0.00,,,0.02,meteohub,2013-02-24 20:57:00,
2013-02-24 16:02:00,62.8,23.4,29.88,NW,315,4.0,7.0,22,0.00,,,0.02,meteohub,2013-02-24 21:02:00,
2013-02-24 16:07:00,62.8,23.4,29.88,SW,225,2.0,7.0,22,0.00,,,0.02,meteohub,2013-02-24 21:07:00,
2013-02-24 16:12:00,62.6,24.3,29.88,NW,315,2.0,5.0,23,0.00,,,0.02,meteohub,2013-02-24 21:12:00,
2013-02-24 16:17:00,62.1,23.9,29.88,WNW,293,2.0,9.0,23,0.00,,,0.02,meteohub,2013-02-24 21:17:00,
2013-02-24 16:22:00,61.9,23.7,29.88,West,270,3.0,9.0,23,0.00,,,0.02,meteohub,2013-02-24 21:22:00,
2013-02-24 16:27:00,61.5,24.4,29.88,North,0,2.0,9.0,24,0.00,,,0.02,meteohub,2013-02-24 21:27:00,
2013-02-24 16:32:00,61.2,26.1,29.88,South,180,2.0,6.0,26,0.00,,,0.02,meteohub,2013-02-24 21:32:00,
2013-02-24 16:37:00,61.0,26.8,29.88,NW,315,2.0,4.0,27,0.00,,,0.02,meteohub,2013-02-24 21:37:00,
2013-02-24 16:42:00,60.6,28.9,29.89,SW,225,4.0,4.0,30,0.00,,,0.02,meteohub,2013-02-24 21:42:00,
2013-02-24 16:47:00,60.4,28.9,29.89,West,270,4.0,4.0,30,0.00,,,0.02,meteohub,2013-02-24 21:47:00,
2013-02-24 16:52:00,60.3,27.9,29.88,NW,315,8.0,8.0,29,0.00,,,0.02,meteohub,2013-02-24 21:52:00,
2013-02-24 16:57:00,60.3,27.9,29.89,NE,45,3.0,8.0,29,0.00,,,0.02,meteohub,2013-02-24 21:57:00,
2013-02-24 17:02:00,59.9,30.0,29.90,NNW,338,2.0,8.0,32,0.00,,,0.02,meteohub,2013-02-24 22:02:00,
2013-02-24 17:07:00,59.5,27.3,29.90,NE,45,4.0,8.0,29,0.00,,,0.02,meteohub,2013-02-24 22:07:00,
2013-02-24 17:12:00,59.4,27.1,29.90,WNW,293,5.0,8.0,29,0.00,,,0.02,meteohub,2013-02-24 22:12:00,
2013-02-24 17:17:00,59.2,25.2,29.90,North,0,4.0,8.0,27,0.00,,,0.02,meteohub,2013-02-24 22:17:00,
2013-02-24 17:22:00,59.2,23.4,29.90,South,180,4.0,5.0,25,0.00,,,0.02,meteohub,2013-02-24 22:22:00,
2013-02-24 17:27:00,59.0,24.1,29.90,NW,315,5.0,7.0,26,0.00,,,0.02,meteohub,2013-02-24 22:27:00,
2013-02-24 17:32:00,58.8,22.1,29.90,SW,225,4.0,7.0,24,0.00,,,0.02,meteohub,2013-02-24 22:32:00,
2013-02-24 17:37:00,58.6,21.9,29.91,NW,315,4.0,7.0,24,0.00,,,0.02,meteohub,2013-02-24 22:37:00,
2013-02-24 17:42:00,58.5,21.7,29.91,SW,225,4.0,7.0,24,0.00,,,0.02,meteohub,2013-02-24 22:42:00,
2013-02-24 17:47:00,58.1,21.6,29.91,SE,135,2.0,7.0,24,0.00,,,0.02,meteohub,2013-02-24 22:47:00,
2013-02-24 17:52:00,57.7,22.1,29.91,West,270,2.0,6.0,25,0.00,,,0.02,meteohub,2013-02-24 22:52:00,
2013-02-24 17:57:00,57.0,23.4,29.91,East,90,4.0,6.0,27,0.00,,,0.02,meteohub,2013-02-24 22:57:00,
2013-02-24 18:02:00,56.3,26.1,29.92,West,270,2.0,4.0,31,0.00,,,0.02,meteohub,2013-02-24 23:02:00,
2013-02-24 18:07:00,55.0,27.9,29.92,South,180,2.0,4.0,35,0.00,,,0.02,meteohub,2013-02-24 23:07:00,
2013-02-24 18:12:00,53.4,30.4,29.92,South,180,2.0,4.0,41,0.00,,,0.02,meteohub,2013-02-24 23:12:00,
2013-02-24 18:17:00,51.8,30.6,29.93,South,180,2.0,2.0,44,0.00,,,0.02,meteohub,2013-02-24 23:17:00,
2013-02-24 18:22:00,50.4,31.5,29.93,South,180,2.0,2.0,48,0.00,,,0.02,meteohub,2013-02-24 23:22:00,
2013-02-24 18:27:00,49.1,31.8,29.94,South,180,2.0,2.0,51,0.00,,,0.02,meteohub,2013-02-24 23:27:00,
2013-02-24 18:32:00,47.8,31.5,29.94,South,180,2.0,2.0,53,0.00,,,0.02,meteohub,2013-02-24 23:32:00,
2013-02-24 18:37:00,46.6,31.3,29.94,South,180,2.0,2.0,55,0.00,,,0.02,meteohub,2013-02-24 23:37:00,
2013-02-24 18:42:00,45.5,32.0,29.95,South,180,2.0,2.0,59,0.00,,,0.02,meteohub,2013-02-24 23:42:00,
2013-02-24 18:47:00,44.4,31.5,29.95,South,180,2.0,2.0,60,0.00,,,0.02,meteohub,2013-02-24 23:47:00,
2013-02-24 18:52:00,43.7,32.0,29.95,South,180,2.0,2.0,63,0.00,,,0.02,meteohub,2013-02-24 23:52:00,
2013-02-24 18:57:00,42.8,32.2,29.96,South,180,2.0,2.0,66,0.00,,,0.02,meteohub,2013-02-24 23:57:00,
2013-02-24 19:02:00,42.1,32.0,29.96,South,180,2.0,2.0,67,0.00,,,0.02,meteohub,2013-02-25 00:02:00,
2013-02-24 19:07:00,41.5,31.5,29.96,South,180,2.0,2.0,67,0.00,,,0.00,meteohub,2013-02-25 00:07:00,
2013-02-24 19:12:00,41.0,30.9,29.97,South,180,0.0,2.0,67,0.00,,,0.00,meteohub,2013-02-25 00:12:00,
2013-02-24 19:17:00,40.6,30.6,29.97,South,180,2.0,2.0,67,0.00,,,0.00,meteohub,2013-02-25 00:17:00,
2013-02-24 19:22:00,41.0,32.0,29.97,South,180,2.0,2.0,70,0.00,,,0.00,meteohub,2013-02-25 00:22:00,
2013-02-24 19:27:00,40.6,31.6,29.97,South,180,1.0,2.0,70,0.00,,,0.00,meteohub,2013-02-25 00:27:00,
2013-02-24 19:32:00,39.9,30.6,29.98,South,180,2.0,2.0,69,0.00,,,0.00,meteohub,2013-02-25 00:32:00,
2013-02-24 19:37:00,39.2,29.8,29.98,South,180,1.0,2.0,69,0.00,,,0.00,meteohub,2013-02-25 00:37:00,
2013-02-24 19:42:00,38.7,30.0,29.99,South,180,2.0,2.0,71,0.00,,,0.00,meteohub,2013-02-25 00:42:00,
2013-02-24 19:47:00,38.3,30.0,29.99,South,180,2.0,2.0,72,0.00,,,0.00,meteohub,2013-02-25 00:47:00,
2013-02-24 19:52:00,37.8,29.5,30.00,South,180,1.0,2.0,72,0.00,,,0.00,meteohub,2013-02-25 00:52:00,
2013-02-24 19:57:00,37.2,29.1,30.00,South,180,1.0,2.0,72,0.00,,,0.00,meteohub,2013-02-25 00:57:00,
2013-02-24 20:02:00,36.9,28.4,30.00,South,180,0.0,2.0,71,0.00,,,0.00,meteohub,2013-02-25 01:02:00,
2013-02-24 20:07:00,36.7,28.8,30.00,South,180,2.0,2.0,73,0.00,,,0.00,meteohub,2013-02-25 01:07:00,
2013-02-24 20:12:00,36.5,29.3,30.00,South,180,1.0,2.0,75,0.00,,,0.00,meteohub,2013-02-25 01:12:00,
2013-02-24 20:17:00,36.1,28.9,30.01,South,180,1.0,2.0,75,0.00,,,0.00,meteohub,2013-02-25 01:17:00,
2013-02-24 20:22:00,35.6,28.4,30.01,South,180,1.0,2.0,75,0.00,,,0.00,meteohub,2013-02-25 01:22:00,
2013-02-24 20:27:00,35.4,28.6,30.01,South,180,2.0,2.0,76,0.00,,,0.00,meteohub,2013-02-25 01:27:00,
2013-02-24 20:32:00,35.2,29.1,30.01,South,180,2.0,2.0,78,0.00,,,0.00,meteohub,2013-02-25 01:32:00,
2013-02-24 20:37:00,35.1,28.9,30.02,South,180,2.0,2.0,78,0.00,,,0.00,meteohub,2013-02-25 01:37:00,
2013-02-24 20:42:00,34.7,28.6,30.02,South,180,2.0,2.0,78,0.00,,,0.00,meteohub,2013-02-25 01:42:00,
2013-02-24 20:47:00,34.3,28.2,30.02,South,180,1.0,2.0,78,0.00,,,0.00,meteohub,2013-02-25 01:47:00,
2013-02-24 20:52:00,34.2,28.4,30.02,South,180,1.0,2.0,79,0.00,,,0.00,meteohub,2013-02-25 01:52:00,
2013-02-24 20:57:00,34.0,28.2,30.03,South,180,1.0,2.0,79,0.00,,,0.00,meteohub,2013-02-25 01:57:00,
2013-02-24 21:02:00,33.8,28.0,30.03,South,180,1.0,2.0,79,0.00,,,0.00,meteohub,2013-02-25 02:02:00,
2013-02-24 21:07:00,33.6,27.9,30.02,South,180,2.0,2.0,79,0.00,,,0.00,meteohub,2013-02-25 02:07:00,
2013-02-24 21:12:00,33.4,27.9,30.03,South,180,2.0,2.0,80,0.00,,,0.00,meteohub,2013-02-25 02:12:00,
2013-02-24 21:17:00,33.4,27.9,30.03,South,180,2.0,2.0,80,0.00,,,0.00,meteohub,2013-02-25 02:17:00,
2013-02-24 21:22:00,33.4,27.9,30.04,South,180,2.0,2.0,80,0.00,,,0.00,meteohub,2013-02-25 02:22:00,
2013-02-24 21:27:00,32.9,27.5,30.04,South,180,1.0,2.0,80,0.00,,,0.00,meteohub,2013-02-25 02:27:00,
2013-02-24 21:32:00,32.7,27.3,30.04,South,180,0.0,2.0,80,0.00,,,0.00,meteohub,2013-02-25 02:32:00,
2013-02-24 21:37:00,32.5,27.1,30.04,South,180,0.0,2.0,80,0.00,,,0.00,meteohub,2013-02-25 02:37:00,
2013-02-24 21:42:00,32.5,27.3,30.04,South,180,1.0,1.0,81,0.00,,,0.00,meteohub,2013-02-25 02:42:00,
2013-02-24 21:47:00,32.4,27.5,30.04,South,180,2.0,2.0,82,0.00,,,0.00,meteohub,2013-02-25 02:47:00,
2013-02-24 21:52:00,32.4,27.5,30.04,South,180,1.0,2.0,82,0.00,,,0.00,meteohub,2013-02-25 02:52:00,
2013-02-24 21:57:00,32.2,27.3,30.04,South,180,2.0,2.0,82,0.00,,,0.00,meteohub,2013-02-25 02:57:00,
2013-02-24 22:02:00,32.0,27.1,30.04,South,180,1.0,2.0,82,0.00,,,0.00,meteohub,2013-02-25 03:02:00,
2013-02-24 22:07:00,31.6,26.8,30.04,South,180,0.0,2.0,82,0.00,,,0.00,meteohub,2013-02-25 03:07:00,
2013-02-24 22:12:00,31.6,27.1,30.04,South,180,2.0,2.0,83,0.00,,,0.00,meteohub,2013-02-25 03:12:00,
2013-02-24 22:17:00,31.8,27.5,30.04,South,180,2.0,2.0,84,0.00,,,0.00,meteohub,2013-02-25 03:17:00,
2013-02-24 22:22:00,31.8,27.5,30.04,South,180,2.0,2.0,84,0.00,,,0.00,meteohub,2013-02-25 03:22:00,
2013-02-24 22:27:00,31.5,27.1,30.04,South,180,1.0,2.0,84,0.00,,,0.00,meteohub,2013-02-25 03:27:00,
2013-02-24 22:32:00,31.5,27.1,30.04,South,180,0.0,2.0,84,0.00,,,0.00,meteohub,2013-02-25 03:32:00,
2013-02-24 22:37:00,31.5,27.1,30.04,South,180,1.0,2.0,84,0.00,,,0.00,meteohub,2013-02-25 03:37:00,
2013-02-24 22:42:00,31.3,27.3,30.04,South,180,2.0,2.0,85,0.00,,,0.00,meteohub,2013-02-25 03:42:00,
2013-02-24 22:47:00,31.1,27.1,30.04,South,180,1.0,2.0,85,0.00,,,0.00,meteohub,2013-02-25 03:47:00,
2013-02-24 22:52:00,31.1,27.1,30.05,South,180,1.0,2.0,85,0.00,,,0.00,meteohub,2013-02-25 03:52:00,
2013-02-24 22:57:00,31.1,27.1,30.04,South,180,1.0,2.0,85,0.00,,,0.00,meteohub,2013-02-25 03:57:00,
2013-02-24 23:02:00,31.1,27.1,30.04,South,180,1.0,2.0,85,0.00,,,0.00,meteohub,2013-02-25 04:02:00,
2013-02-24 23:09:00,31.1,27.3,30.04,South,180,2.0,2.0,86,0.00,,,0.00,meteohub,2013-02-25 04:09:00,
2013-02-24 23:15:00,30.9,27.5,30.05,South,180,2.0,2.0,87,0.00,,,0.00,meteohub,2013-02-25 04:15:00,
2013-02-24 23:21:00,30.9,27.5,30.04,South,180,2.0,2.0,87,0.00,,,0.00,meteohub,2013-02-25 04:21:00,
2013-02-24 23:27:00,30.9,27.5,30.05,South,180,2.0,2.0,87,0.00,,,0.00,meteohub,2013-02-25 04:27:00,
2013-02-24 23:32:00,30.9,27.5,30.06,South,180,2.0,2.0,87,0.00,,,0.00,meteohub,2013-02-25 04:32:00,
2013-02-24 23:37:00,31.1,27.7,30.05,South,180,1.0,2.0,87,0.00,,,0.00,meteohub,2013-02-25 04:37:00,
2013-02-24 23:42:00,31.3,28.2,30.05,South,180,2.0,2.0,88,0.00,,,0.00,meteohub,2013-02-25 04:42:00,
2013-02-24 23:47:00,31.1,27.7,30.06,South,180,1.0,2.0,87,0.00,,,0.00,meteohub,2013-02-25 04:47:00,
2013-02-24 23:52:00,30.9,27.5,30.06,South,180,2.0,2.0,87,0.00,,,0.00,meteohub,2013-02-25 04:52:00,
2013-02-24 23:57:00,30.9,27.5,30.06,South,180,1.0,2.0,87,0.00,,,0.00,meteohub,2013-02-25 04:57:00,